Find Starlink 30855

NORAD ID: 58222 Int'l Des: 2023-170 Owner: SPXS Country: US Constellation: starlink operational
LEOCIRCULAR

Live Position

Loading 3D Globe...

About Starlink 30855

Description loading...

Upcoming Passes

Passes for default location (London). Set your location on the main map for personalized predictions.

Altitude History

Loading altitude history...

Two-Line Element Set

1 58222U 23170S 26120.72146621 .00001390 00000-0 60058-4 0 9998
2 58222 43.0032 260.6446 0001484 259.3192 100.7493 15.27569045138256
Epoch: Apr 30, 2026 • Age: 21 hours

Current Status

Altitude 484.4 km
Velocity 7.62 km/s
Sub-Earth Point -10.12°S, 8.61°E
Launch Date Nov 4, 2023
Age 2.4 years
Type internet

Technical Details

Classification Payload
Mass 730.00 kg
Dry Mass 700.00 kg
Total Mass 730.00 kg
Length 0.30 m
Diameter 4.10 m
Span 29.00 m
Shape Box + pan
Manufacturer SPXS
Bus Type Starlink V2M
Phase Status In Orbit
Owner/State SPXS/US

Most Searched